Dewpoint
50 50 51 52 52 51 51 51 51 48 48 47 48 49 49 49 49 48 48 47 46 45 45 47 49 56 53 46 46 52 56 57 42 37 34 31 26 26 24 26 29 23 28 28 29 30 28
51 50 51 53 49 50 50 50 51 49 48 48 48 48 48 47 47 47 47 46 46 45 44 46 52 54 49 41 53 52 53 49 39 37 35 33 30 30 29 28 26 28 29 27 27 26 27
51 51 51 52 50 50 50 50 51 49 48 48 48 47 47 47 47 46 47 46 45 44 45 47 51 51 45 45 49 49 50 50 42 38 36 36 33 29 30 28 30 29 25 24 26 26 25
51 51 51 52 52 51 49 50 50 49 48 47 47 47 48 48 48 51 52 52 50 48 47 50 51 49 45 51 52 46 43 41 40 38 37 36 33 31 29 29 27 24 25 23 25 28 28
50 51 51 51 52 51 49 50 49 49 48 47 46 47 48 49 51 53 54 54 55 54 54 51 46 44 41 52 47 47 44 38 38 37 36 33 33 31 30 29 25 25 29 21 20 27 27
50 51 50 50 51 51 52 48 49 48 48 47 47 46 47 50 50 50 53 52 52 51 48 47 45 40 43 43 47 43 42 38 38 37 35 32 31 29 29 28 24 21 22 20 18 26 27
49 50 51 50 50 51 51 51 49 49 48 48 47 46 46 48 49 49 47 46 44 42 44 40 40 40 42 46 45 40 36 34 33 31 29 32 29 31 28 23 21 19 17 18 19 24 27
49 49 51 51 50 50 50 51 51 49 49 48 47 47 45 45 48 48 46 42 42 44 38 42 43 43 43 41 38 35 38 32 32 30 30 29 27 26 27 26 23 22 22 21 26 27 28
51 49 49 50 50 50 50 50 50 51 50 48 48 47 47 44 44 46 43 43 46 45 36 37 40 40 42 40 35 35 35 33 30 28 26 27 29 29 27 26 25 23 23 24 26 28 28
52 49 49 48 49 50 50 50 50 50 51 50 48 49 47 46 42 42 41 44 46 45 35 34 36 38 38 39 34 38 38 36 32 28 27 27 28 26 26 24 25 24 27 27 28 29 29
53 52 48 48 48 49 50 51 51 50 50 51 50 48 46 46 41 41 42 44 46 44 23 35 36 40 37 34 35 35 39 36 31 30 32 27 30 30 29 28 29 28 31 30 30 30 32
53 52 51 47 48 48 50 51 51 50 50 50 50 47 47 41 43 43 44 44 44 35 23 33 36 36 36 34 34 35 35 36 34 33 32 29 30 31 31 29 31 31 31 31 30 30 27
53 53 52 48 47 48 49 50 51 50 50 50 50 46 43 42 39 44 44 42 36 27 32 30 31 31 29 30 32 32 31 31 30 33 32 32 32 33 32 31 33 32 32 29 29 28 26
54 52 52 51 47 48 49 50 50 50 50 50 47 44 42 41 44 44 43 39 26 28 27 32 32 31 30 33 31 32 31 32 34 31 30 31 29 32 35 33 33 33 33 31 24 25 25
54 53 52 51 48 49 50 50 50 51 52 48 45 43 43 43 44 44 39 34 30 29 31 30 32 26 30 32 32 31 32 32 33 33 28 31 28 33 33 34 35 36 34 36 32 30 29
53 54 53 51 48 49 49 51 51 51 50 46 41 41 41 44 45 44 41 33 32 34 34 32 30 30 27 28 29 30 30 33 33 35 33 31 29 31 36 37 37 35 38 33 33 26 25
53 54 52 51 49 50 51 51 51 50 49 44 42 41 43 44 44 40 38 35 33 35 35 32 29 28 29 29 30 28 29 33 35 36 36 35 32 30 33 34 31 36 35 35 34 31 27
53 53 53 52 49 50 51 50 50 49 48 43 42 43 43 45 43 39 36 33 35 34 36 34 33 29 28 31 29 29 29 31 35 36 33 34 32 29 28 30 33 32 33 34 30 30 27
53 53 53 51 49 51 51 50 50 49 47 41 37 44 44 44 40 36 34 33 34 34 33 33 31 32 31 29 28 29 30 35 36 35 33 33 31 28 26 28 30 30 34 34 32 31 28
52 52 53 51 50 51 50 50 50 49 45 41 35 41 40 38 36 33 33 32 33 35 33 33 31 32 29 27 28 27 25 31 33 34 38 37 31 28 24 22 26 25 26 32 31 30 28
52 52 52 51 48 50 50 50 50 49 45 41 37 38 36 39 34 33 33 33 31 31 34 33 30 31 28 23 25 23 27 28 31 34 34 33 29 30 28 26 24 25 26 25 31 31 29
51 52 52 50 48 50 50 50 50 48 44 41 36 36 36 35 33 33 33 32 31 30 32 28 30 30 30 27 27 25 29 27 24 29 27 30 29 27 27 23 25 25 25 25 24 28 30
53 52 52 50 48 49 49 49 50 48 47 40 42 39 37 35 32 32 30 30 31 33 34 34 33 31 28 32 34 33 33 32 32 30 28 27 28 26 22 21 20 16 17 19 22 26 30
53 53 52 50 47 49 49 49 49 47 45 43 42 38 31 29 30 28 30 31 31 33 32 33 34 32 34 36 34 33 34 33 33 33 33 29 27 27 28 24 19 20 25 26 20 24 27
54 53 52 51 46 48 48 49 48 47 45 43 43 40 35 25 26 28 29 30 31 32 32 32 33 34 36 34 27 21 21 23 25 30 31 32 29 26 25 19 14 10 17 24 25 22 26
54 54 53 53 47 46 48 48 48 47 44 42 40 41 36 29 23 27 29 30 29 28 29 31 34 36 36 31 26 20 12 15 15 22 26 29 29 27 22 18 7 15 24 26 26 17 24
54 54 53 53 51 46 47 47 47 47 43 41 40 40 37 32 30 29 27 29 31 31 29 30 32 35 36 28 23 19 18 21 15 16 21 24 25 24 23 21 17 20 25 25 18 19 26
54 54 54 53 53 49 46 48 47 47 44 41 40 40 38 34 33 31 31 32 34 33 27 31 30 33 33 29 24 22 21 21 22 19 18 18 17 20 19 18 18 23 26 21 23 26 26
54 54 54 53 52 51 48 47 48 47 44 41 39 39 38 35 34 34 33 33 34 35 34 33 32 33 34 35 30 28 25 25 21 14 23 19 18 14 16 17 24 25 26 26 28 28 27
Lifted_Index
13 12 11 11 10 8 6 5 4 4 3 2 2 3 3 3 3 4 4 4 4 4 4 3 2 2 2 2 3 3 3 3 6 8 9 9 9 8 8 7 7 8 8 9 9 9 10
13 12 11 11 10 8 6 5 4 4 2 1 1 2 3 4 4 4 4 4 4 4 4 3 2 2 2 3 3 3 3 3 6 8 8 8 8 8 8 7 8 8 8 8 9 9 9
13 12 11 10 10 8 6 5 4 4 2 0 0 1 3 4 4 4 4 4 4 4 4 3 2 2 3 3 4 3 3 4 6 8 8 8 8 8 8 7 8 7 7 7 8 9 9
13 12 11 10 9 8 6 5 4 4 2 1 1 2 3 4 3 3 2 2 2 3 3 3 2 3 3 4 4 5 4 5 6 8 8 8 9 8 8 7 7 7 6 6 7 8 9
13 12 12 11 9 8 6 5 5 4 3 3 3 3 4 3 3 2 1 1 1 2 3 3 3 3 4 4 5 5 5 6 6 7 8 8 8 8 8 7 6 5 5 4 6 7 8
13 12 12 11 10 8 6 6 5 4 4 4 4 5 4 3 2 2 1 1 2 2 3 3 3 4 4 4 5 6 6 6 7 7 7 8 7 7 7 6 5 4 4 4 5 7 7
13 13 12 11 10 8 7 6 5 5 5 5 5 5 4 3 2 2 2 2 2 2 3 3 3 3 4 4 5 6 6 7 7 6 6 7 6 6 6 6 6 5 4 4 5 6 7
13 13 12 12 11 9 7 6 6 5 5 5 5 5 4 3 3 3 2 2 2 2 3 3 3 3 4 4 5 5 6 6 6 5 5 6 6 6 7 7 6 5 4 4 5 6 6
12 13 13 12 11 10 8 7 6 5 5 5 5 5 4 3 3 3 2 2 2 2 3 3 3 4 4 4 5 5 5 5 5 5 5 6 6 7 7 7 6 5 5 5 5 6 5
11 12 13 13 12 11 9 8 7 6 6 6 6 6 5 4 3 3 3 3 3 3 3 3 4 4 4 4 5 5 5 5 5 5 6 6 7 7 7 6 6 6 6 6 6 5 4
11 11 13 13 13 12 11 9 7 7 7 6 6 6 6 5 4 3 3 3 3 3 2 3 4 4 4 4 5 5 5 5 6 6 6 6 7 7 6 6 6 6 6 6 6 5 4
10 11 12 13 13 13 12 10 8 7 7 7 7 7 7 6 4 4 4 3 3 2 2 4 4 4 4 4 5 5 5 5 6 6 6 6 6 6 6 6 6 6 5 5 4 4 3
10 10 11 13 13 13 12 11 9 8 8 8 7 7 7 6 6 5 4 3 2 2 3 4 4 4 4 4 5 5 5 5 5 5 5 5 5 5 5 5 5 5 4 3 2 2 1
10 10 11 12 13 13 13 12 11 9 9 8 8 7 7 7 6 6 4 3 2 2 3 3 4 4 4 4 4 4 4 4 5 5 5 4 4 4 4 4 3 3 3 2 1 1 1
10 10 11 12 13 13 13 12 11 10 9 9 8 8 7 7 7 5 4 3 3 3 3 3 3 3 3 3 3 3 3 4 4 4 4 4 3 4 4 3 3 3 3 2 2 1 1
10 10 11 12 13 13 13 12 12 11 11 10 9 8 7 7 6 5 4 4 4 4 4 3 3 3 3 3 3 3 3 3 4 4 4 4 3 3 3 3 3 3 3 3 3 2 1
10 10 11 12 13 13 13 12 12 12 12 11 9 8 8 7 6 5 4 4 5 5 4 4 4 3 3 3 3 3 3 3 4 4 4 4 3 3 3 3 3 3 3 3 3 2 1
9 10 11 12 13 13 13 13 13 13 13 11 10 8 8 8 6 5 5 5 5 5 5 5 4 4 4 3 3 3 3 4 4 4 4 4 4 3 3 3 4 4 4 4 3 3 2
8 9 11 12 13 13 13 13 13 13 13 12 10 9 9 8 7 6 6 6 6 6 6 5 5 5 4 4 4 4 4 5 5 5 5 5 4 3 3 4 4 4 3 4 3 3 2
7 9 10 11 12 13 13 13 14 14 14 12 11 9 9 8 8 7 7 7 7 7 6 6 6 6 5 5 5 5 5 6 6 6 6 6 5 4 4 5 5 4 3 3 3 2 2
7 8 10 11 12 13 13 14 14 14 14 13 11 10 10 9 9 9 8 8 8 7 7 7 7 6 6 6 6 6 6 7 7 7 7 6 5 5 5 6 6 5 4 4 4 3 3
8 8 9 10 11 13 14 14 14 14 14 13 12 11 11 10 10 9 9 8 8 8 8 8 8 7 7 7 7 7 7 7 7 7 7 7 6 5 5 5 5 5 5 5 5 5 5
8 9 9 10 11 13 14 14 14 14 14 13 13 13 11 10 10 10 9 9 9 9 9 9 8 8 8 8 8 8 8 8 8 8 8 8 7 6 5 5 4 4 5 6 6 7 7
9 9 9 10 11 13 14 15 15 15 14 14 14 13 11 10 10 10 10 10 10 10 10 9 9 9 9 9 9 8 8 8 8 8 8 8 8 6 5 4 4 4 6 7 7 7 7
9 10 10 11 11 13 14 15 16 15 15 14 14 13 11 10 10 11 11 11 11 11 10 10 10 10 10 10 9 8 7 7 8 8 9 9 9 7 5 4 4 5 7 8 8 8 8
10 10 11 11 11 12 14 15 16 16 15 15 15 14 13 11 11 11 11 11 11 11 11 11 11 11 11 10 8 7 6 6 7 7 8 9 9 7 5 4 4 7 9 9 8 7 8
10 10 11 11 11 12 13 15 16 16 16 15 15 15 14 13 12 12 12 11 12 12 11 11 12 11 11 10 8 7 6 7 6 7 7 8 8 7 5 4 5 8 10 9 8 8 9
10 10 11 11 12 12 12 14 15 16 17 16 16 16 15 15 14 14 13 13 13 12 12 12 12 12 11 10 9 8 8 7 7 7 7 7 7 6 6 5 6 9 10 9 9 10 10
10 10 11 11 12 12 12 13 14 16 17 16 15 16 16 15 15 15 14 14 13 13 13 13 12 12 11 10 10 9 9 8 7 7 7 7 7 7 6 6 8 10 10 10 11 11 11